Volver al catálogo

SL-14 DEB

LostPO
NORAD 45329·DEBRIS·🇷🇺 Russia

Lanzado Aug 15, 1991 desde Plesetsk Cosmodrome

Loading…

Próximos Pases (próximas 24 horas)

TLE

ObsoletoSource: Space-Track

Época: Mar 13, 2020, 02:15 UTC

1 45329U 91056BT  20073.09399242 -.00168790 +00000-0 -38494+0 0  9994
2 45329 082.7234 314.5863 0280633 052.7301 309.9057 13.13702509001444

Sigue SL-14 DEB en tiempo real con AllMySat

Download on the App Store